Temp
67 67 66 66 66 67 68 68 67 66 68 69 69 69 69 68 68 67 67 67 67 67 67 67 66 66 66 66 66 66 65 65 65 64 63 63 65 64 64 64 63 63 62 62 61 61 60 60 59 59 58 57 56 55 54 53 52 51 50 48 46 45 45 44 43 43 43 42 42
68 68 66 63 63 65 67 67 66 66 67 68 68 68 68 68 67 67 67 67 67 67 67 66 66 66 66 66 65 65 65 65 64 63 63 63 64 64 63 63 63 62 61 61 60 60 60 59 59 58 57 57 56 54 53 51 50 49 47 46 45 44 44 43 43 43 43 43 43
68 68 68 67 67 67 67 68 68 69 69 69 69 68 68 67 67 67 67 67 67 67 67 66 66 66 65 65 65 65 65 65 64 64 63 63 63 63 63 63 62 61 60 60 59 59 59 59 58 57 56 56 55 53 52 51 50 49 48 47 47 47 47 45 44 44 44 43 44
67 68 68 69 68 68 68 69 69 69 69 69 69 68 67 67 66 66 66 67 67 67 66 66 65 65 65 64 65 65 64 63 63 63 63 63 63 62 62 62 61 61 60 59 59 59 59 58 58 57 56 55 54 53 53 52 52 51 51 51 51 50 49 48 48 47 47 47 47
66 67 68 69 69 69 69 69 69 69 69 68 68 67 67 66 66 66 66 66 66 66 66 66 65 64 64 64 64 64 63 63 61 61 62 62 62 62 61 61 61 60 60 59 58 58 58 57 58 58 57 57 57 57 56 55 54 53 53 53 52 51 51 51 51 51 51 51 51
67 68 68 68 68 67 67 67 67 67 67 67 67 66 66 66 66 66 66 66 66 66 66 64 63 62 63 64 63 63 62 62 61 61 62 62 61 61 61 61 60 60 60 60 59 58 58 58 58 58 59 59 58 58 57 56 55 54 54 53 53 53 53 52 52 53 53 52 52
70 70 69 68 68 67 67 67 67 67 67 66 66 66 66 66 66 66 66 66 66 66 64 62 62 62 62 63 63 62 62 62 62 62 62 62 61 61 61 61 60 60 60 60 59 59 59 59 58 58 57 56 57 57 57 56 55 55 54 54 54 54 54 54 54 54 54 53 53
71 70 70 70 69 68 67 67 67 67 66 66 65 65 65 66 66 66 66 66 66 65 64 63 63 63 63 63 62 62 62 62 61 61 61 61 61 61 61 60 60 60 60 60 59 59 59 59 58 58 57 57 56 56 56 55 54 54 54 54 54 54 54 54 54 54 54 53 52
70 70 70 69 69 68 67 67 67 66 66 66 65 65 65 65 65 65 65 65 65 65 64 64 64 63 63 62 62 62 62 62 62 61 61 61 61 60 60 60 60 60 59 59 59 59 58 58 58 58 58 57 57 56 55 54 53 53 53 54 54 54 54 54 54 54 54 53 52
70 70 70 69 69 68 67 67 66 66 66 65 65 65 64 62 63 64 65 65 64 64 64 64 63 63 62 62 61 62 62 62 62 62 62 61 61 60 60 60 60 60 60 60 59 59 58 58 58 57 57 57 57 56 55 54 53 53 53 54 54 54 54 54 54 54 53 52 51
70 70 70 70 69 68 68 67 66 66 65 65 65 65 65 63 64 64 65 65 64 64 64 63 63 63 62 62 62 62 62 62 62 62 62 61 61 61 61 61 60 60 60 60 60 59 59 58 58 57 57 57 57 56 55 54 54 53 53 54 53 53 53 54 54 54 53 52 52
69 70 70 70 69 69 68 67 66 66 66 66 66 66 66 66 66 65 65 64 64 64 64 64 63 63 63 63 63 62 62 63 62 62 62 62 61 61 61 61 60 60 60 60 59 59 59 58 57 57 56 56 56 56 56 55 54 53 53 53 53 53 52 52 53 53 53 53 52
69 69 69 69 69 68 67 66 66 66 66 66 66 66 66 67 66 66 65 64 64 64 64 64 64 63 63 63 63 63 63 62 62 62 62 61 61 61 61 60 60 60 60 59 58 58 58 58 57 57 56 56 56 56 55 54 54 53 53 52 52 52 52 52 52 53 53 52 51
68 68 68 68 68 67 66 66 66 66 66 66 66 66 66 67 66 65 65 64 64 64 64 64 64 63 63 63 63 63 63 62 62 61 61 61 61 60 60 60 60 59 59 58 57 57 57 57 56 56 56 55 55 55 54 54 53 53 53 52 52 52 52 52 52 52 52 51 50
67 67 68 68 67 67 66 65 65 65 65 65 66 66 66 66 65 65 64 64 64 64 64 64 64 63 63 62 62 62 62 62 61 61 60 60 60 60 59 59 59 59 58 58 57 56 56 56 56 55 55 55 54 54 54 53 52 52 52 52 52 51 51 51 51 51 51 50 49
66 67 67 67 66 66 65 65 65 65 65 65 66 66 66 66 65 64 63 62 63 63 63 63 63 63 62 61 61 61 61 61 61 60 60 60 59 59 58 58 58 58 57 57 56 55 55 55 54 54 54 53 53 53 53 52 52 51 51 51 51 51 51 51 51 50 50 49 49
66 66 67 67 66 65 65 64 65 65 65 65 65 65 65 65 65 63 62 61 62 62 62 62 63 62 62 61 60 60 60 60 60 59 59 59 58 58 57 57 57 57 56 56 55 55 54 54 53 53 52 52 52 52 52 52 51 51 50 50 50 50 50 49 49 49 49 49 48
66 66 66 66 65 65 64 64 64 64 65 65 65 65 65 64 64 63 62 61 61 61 61 61 61 61 60 60 59 59 58 58 59 58 58 58 58 57 57 56 56 56 55 55 54 54 54 53 52 52 51 50 50 50 50 50 50 49 49 49 49 49 49 48 48 48 48 48 48
65 66 66 66 65 65 64 63 64 64 65 65 65 64 64 64 63 63 62 62 61 60 60 59 59 59 59 58 58 57 57 57 57 57 57 57 57 56 56 55 55 54 54 53 53 52 52 51 50 50 49 49 49 48 48 48 48 48 48 47 47 47 47 48 48 48 48 47 47
66 66 66 66 65 65 64 64 64 64 64 64 64 64 63 63 63 62 62 62 61 60 59 58 58 58 58 57 57 56 56 56 56 56 56 55 55 55 54 54 53 52 52 52 51 50 50 49 48 48 47 47 46 46 46 46 46 46 46 46 46 46 47 47 47 47 47 47 46
65 65 66 65 65 65 64 64 64 63 63 63 63 63 62 62 62 61 61 61 60 59 58 57 57 57 57 57 56 56 55 54 54 54 53 53 53 52 52 51 50 50 50 49 49 48 48 47 46 46 45 45 44 44 45 45 45 45 45 45 45 46 46 46 46 45 45 45 45
64 64 65 65 65 64 64 63 62 62 62 62 62 62 61 61 61 60 59 58 57 57 57 56 56 56 55 55 54 54 53 52 51 51 51 51 50 49 48 47 47 47 47 47 47 46 45 45 44 44 44 44 44 44 44 44 44 44 44 44 44 44 44 44 44 44 45 45 45
63 64 64 64 63 62 61 61 61 61 61 61 61 61 60 60 59 58 56 55 54 54 55 55 54 53 52 52 51 51 50 50 49 48 48 48 47 46 45 45 45 44 45 45 45 44 43 43 43 43 43 43 43 43 43 42 42 42 42 42 42 43 43 44 44 44 44 45 45
63 63 63 62 61 60 60 59 59 59 60 60 60 60 59 57 56 54 53 53 53 52 52 51 50 49 49 49 49 49 48 48 47 46 45 45 44 44 43 43 44 44 44 43 42 40 40 40 41 42 42 42 42 42 42 42 41 41 41 41 42 42 42 43 43 44 44 44 44
62 61 61 60 59 58 58 58 58 58 58 59 58 57 56 54 53 52 51 51 50 49 49 48 47 47 47 47 47 47 46 45 44 43 43 42 42 42 42 43 43 43 43 42 38 36 36 37 38 39 41 41 42 42 42 42 42 42 41 41 41 41 41 42 42 43 43 44 45
60 59 58 58 58 58 57 58 58 57 57 57 56 55 54 53 52 51 50 49 48 47 47 47 46 46 45 46 45 44 43 42 41 41 41 41 41 41 42 43 43 43 42 40 37 35 35 35 36 37 38 41 41 41 42 42 42 42 42 42 41 41 41 42 42 43 44 44 45
58 57 57 57 58 58 58 57 57 56 55 54 53 53 52 52 52 51 49 48 47 47 46 45 45 43 42 43 42 41 40 40 40 40 41 41 41 41 41 42 42 42 41 39 37 36 36 36 36 36 37 40 41 42 42 43 43 43 42 42 42 42 42 42 43 44 44 44 45
57 57 57 57 57 57 56 56 55 54 54 53 52 52 52 52 50 49 48 47 47 46 45 44 42 41 40 40 40 40 40 40 40 41 42 42 42 42 42 42 42 42 41 39 37 37 36 37 37 37 37 38 40 42 42 42 43 43 43 44 44 44 44 44 44 45 45 45 45
56 56 56 56 55 55 54 54 53 53 52 52 52 51 51 50 48 47 47 47 46 44 42 41 40 40 40 40 40 40 40 41 42 43 43 42 42 42 42 42 43 42 40 38 37 37 37 37 37 37 37 37 40 42 43 43 43 43 44 44 45 45 45 45 45 45 45 45 44
56 55 54 53 53 52 51 51 51 51 51 51 51 50 49 47 46 45 45 45 43 41 40 41 41 41 41 41 41 41 42 42 43 43 42 41 41 41 42 42 43 43 40 37 37 36 36 36 36 36 36 36 38 40 42 43 43 43 44 44 45 45 45 45 44 44 44 44 44
55 54 53 51 50 50 50 50 50 50 50 50 49 48 46 45 44 44 43 43 42 41 41 42 42 42 42 42 42 42 42 42 42 42 42 42 41 42 42 43 43 42 40 36 36 35 35 36 36 36 36 36 37 39 41 42 42 43 43 44 44 44 44 44 44 44 43 43 43
54 53 51 50 49 49 49 49 49 49 48 47 47 45 44 43 43 43 43 42 42 42 41 42 41 42 42 42 42 42 42 42 42 42 43 43 42 42 43 43 43 42 39 35 35 35 35 35 36 36 36 35 36 38 39 41 41 42 43 43 43 43 43 43 43 43 43 43 43
52 51 51 50 49 48 48 48 47 47 46 45 44 44 43 43 44 44 44 43 42 42 42 42 42 42 42 42 42 42 42 42 43 43 43 43 43 43 43 43 44 41 37 34 34 35 35 35 35 35 35 35 36 38 40 41 41 42 43 43 43 43 43 43 43 43 43 42 42
50 50 50 50 49 48 47 47 46 45 44 43 43 43 43 44 44 44 43 43 43 43 43 43 43 43 43 43 43 43 43 43 44 44 44 43 43 43 43 44 45 40 36 34 34 34 35 35 35 35 35 34 36 38 41 41 41 42 43 43 43 44 43 43 43 42 42 42 41
50 50 50 50 49 48 47 45 44 43 43 42 42 43 44 44 44 44 43 43 43 43 43 43 44 44 44 45 45 44 44 43 43 43 43 43 44 43 43 44 45 40 35 35 34 34 34 34 34 34 34 34 37 39 41 42 42 42 43 43 43 43 42 42 41 41 41 40 40
50 50 49 48 48 46 45 43 43 42 42 42 42 43 43 44 44 44 44 43 43 43 44 44 45 45 45 46 45 44 43 43 43 42 42 42 42 42 43 43 44 41 36 35 34 34 34 34 34 34 34 35 38 40 41 41 42 42 42 42 42 41 41 40 39 39 39 39 38
50 49 47 46 45 44 42 42 41 41 42 42 42 43 43 43 44 44 44 44 44 44 44 45 46 46 46 46 46 45 44 44 43 41 41 40 40 41 42 42 43 41 38 35 34 34 34 34 33 33 34 36 38 40 40 41 41 41 41 41 40 40 39 38 38 38 37 37 37
50 48 45 43 42 41 41 41 41 42 42 43 43 43 43 44 44 44 44 44 44 45 45 46 46 46 46 45 45 44 43 43 41 40 39 39 39 40 40 41 42 41 39 36 35 34 33 33 33 33 34 36 38 39 39 39 39 39 39 38 38 38 37 37 37 37 37 36 36
47 44 42 40 40 40 40 41 42 42 43 43 43 43 44 44 45 45 45 45 45 46 46 46 46 46 45 44 44 43 42 42 41 39 38 38 38 38 38 39 40 40 39 37 35 34 33 33 33 33 33 35 37 38 38 38 37 36 36 36 36 36 37 37 37 37 36 36 35
42 41 40 39 40 41 42 42 42 43 43 43 43 44 44 45 45 45 45 45 46 46 46 46 45 45 44 42 42 42 42 42 41 40 38 37 38 36 36 37 39 39 39 37 35 34 34 33 33 33 33 35 37 37 37 36 36 35 34 34 35 35 35 36 36 36 36 36 36
40 40 40 41 42 42 43 43 43 44 44 44 44 44 45 45 45 45 46 46 46 46 45 45 44 44 43 41 41 41 41 41 42 41 39 37 38 37 36 38 38 39 39 38 36 35 34 33 33 33 33 35 35 36 36 35 34 34 33 34 34 34 34 34 35 35 35 36 36
MSLP
1017.86 1017.82 1017.78 1017.74 1017.74 1017.74 1017.66 1017.58 1017.62 1017.70 1017.66 1017.58 1017.54 1017.50 1017.46 1017.46 1017.46 1017.46 1017.46 1017.46 1017.42 1017.38 1017.30 1017.30 1017.30 1017.26 1017.30 1017.30 1017.26 1017.22 1017.14 1017.14 1017.14 1017.18 1017.18 1017.14 1017.06 1017.06 1017.10 1017.14 1017.14 1017.18 1017.22 1017.30 1017.34 1017.42 1017.46 1017.50 1017.58 1017.58 1017.62 1017.74 1017.86 1017.98 1018.02 1018.14 1018.18 1018.26 1018.34 1018.50 1018.62 1018.78 1018.90 1019.02 1019.14 1019.26 1019.38 1019.50 1019.62
1017.62 1017.58 1017.62 1017.74 1017.74 1017.74 1017.66 1017.58 1017.58 1017.62 1017.62 1017.58 1017.54 1017.46 1017.46 1017.46 1017.46 1017.42 1017.38 1017.38 1017.34 1017.30 1017.30 1017.22 1017.22 1017.18 1017.14 1017.14 1017.18 1017.14 1017.10 1017.06 1017.06 1017.14 1017.14 1017.06 1017.02 1017.02 1017.06 1017.10 1017.14 1017.22 1017.26 1017.30 1017.38 1017.42 1017.46 1017.50 1017.58 1017.58 1017.66 1017.74 1017.86 1017.94 1018.06 1018.18 1018.22 1018.26 1018.30 1018.38 1018.50 1018.62 1018.74 1018.86 1018.98 1019.10 1019.22 1019.34 1019.46
1017.46 1017.46 1017.46 1017.50 1017.54 1017.54 1017.50 1017.46 1017.42 1017.34 1017.30 1017.30 1017.34 1017.38 1017.42 1017.42 1017.42 1017.42 1017.38 1017.30 1017.30 1017.26 1017.18 1017.14 1017.10 1017.10 1017.10 1017.06 1017.06 1017.02 1017.02 1016.98 1016.98 1016.98 1016.98 1016.98 1016.94 1017.02 1017.02 1017.02 1017.14 1017.18 1017.30 1017.34 1017.42 1017.42 1017.42 1017.46 1017.58 1017.62 1017.70 1017.74 1017.78 1017.90 1018.06 1018.22 1018.30 1018.30 1018.26 1018.26 1018.30 1018.42 1018.58 1018.70 1018.86 1018.98 1019.10 1019.14 1019.26
1017.38 1017.30 1017.30 1017.30 1017.30 1017.26 1017.26 1017.22 1017.18 1017.14 1017.14 1017.14 1017.22 1017.30 1017.34 1017.38 1017.38 1017.38 1017.34 1017.26 1017.22 1017.18 1017.14 1017.02 1017.02 1017.02 1017.02 1017.02 1016.98 1016.90 1016.86 1016.86 1016.86 1016.82 1016.86 1016.86 1016.86 1016.90 1016.98 1017.02 1017.06 1017.14 1017.18 1017.30 1017.38 1017.38 1017.42 1017.46 1017.50 1017.58 1017.58 1017.70 1017.78 1017.86 1017.90 1018.02 1018.06 1018.06 1018.06 1018.14 1018.18 1018.30 1018.42 1018.58 1018.70 1018.78 1018.86 1018.90 1018.94
1017.26 1017.18 1017.14 1017.10 1017.14 1017.14 1017.10 1017.10 1017.10 1017.10 1017.10 1017.14 1017.14 1017.18 1017.26 1017.30 1017.30 1017.30 1017.26 1017.14 1017.06 1017.02 1016.98 1016.98 1016.94 1016.98 1016.98 1016.94 1016.86 1016.82 1016.78 1016.74 1016.78 1016.78 1016.74 1016.74 1016.82 1016.86 1016.90 1016.94 1016.98 1017.02 1017.10 1017.18 1017.30 1017.34 1017.42 1017.42 1017.42 1017.34 1017.34 1017.38 1017.38 1017.42 1017.46 1017.62 1017.74 1017.82 1017.86 1017.94 1018.06 1018.14 1018.22 1018.30 1018.38 1018.42 1018.46 1018.46 1018.46
1017.02 1017.02 1017.02 1017.02 1017.06 1017.10 1017.10 1017.10 1017.10 1017.06 1017.02 1017.06 1017.10 1017.10 1017.06 1017.06 1017.06 1017.02 1016.98 1016.90 1016.86 1016.82 1016.86 1016.94 1016.98 1016.94 1016.90 1016.86 1016.78 1016.74 1016.74 1016.74 1016.74 1016.74 1016.70 1016.66 1016.74 1016.74 1016.82 1016.86 1016.86 1016.90 1016.98 1017.02 1017.10 1017.18 1017.30 1017.26 1017.14 1017.06 1017.02 1016.98 1017.02 1017.06 1017.22 1017.46 1017.58 1017.58 1017.62 1017.74 1017.82 1017.90 1017.94 1017.94 1018.02 1018.02 1018.02 1018.02 1018.02
1016.74 1016.74 1016.82 1016.86 1016.94 1017.02 1017.02 1017.02 1016.98 1016.98 1016.98 1016.98 1016.98 1016.94 1016.86 1016.86 1016.78 1016.74 1016.74 1016.74 1016.70 1016.74 1016.78 1016.86 1016.90 1016.86 1016.82 1016.74 1016.66 1016.62 1016.62 1016.62 1016.62 1016.62 1016.58 1016.54 1016.58 1016.62 1016.70 1016.74 1016.78 1016.82 1016.82 1016.86 1016.86 1016.98 1017.02 1016.98 1016.90 1016.86 1016.90 1017.02 1017.02 1017.06 1017.22 1017.38 1017.46 1017.42 1017.46 1017.50 1017.58 1017.66 1017.70 1017.62 1017.66 1017.62 1017.58 1017.58 1017.66
1016.58 1016.58 1016.58 1016.62 1016.70 1016.74 1016.78 1016.78 1016.78 1016.82 1016.86 1016.82 1016.82 1016.78 1016.74 1016.70 1016.62 1016.58 1016.58 1016.58 1016.54 1016.54 1016.58 1016.66 1016.70 1016.70 1016.66 1016.62 1016.58 1016.54 1016.54 1016.50 1016.46 1016.46 1016.46 1016.42 1016.50 1016.54 1016.58 1016.62 1016.66 1016.70 1016.70 1016.74 1016.74 1016.74 1016.78 1016.78 1016.78 1016.78 1016.82 1016.90 1016.98 1017.06 1017.18 1017.30 1017.34 1017.34 1017.30 1017.30 1017.38 1017.46 1017.46 1017.46 1017.46 1017.42 1017.42 1017.42 1017.46
1016.42 1016.42 1016.42 1016.46 1016.46 1016.50 1016.58 1016.58 1016.62 1016.66 1016.62 1016.62 1016.62 1016.58 1016.58 1016.54 1016.46 1016.42 1016.38 1016.30 1016.30 1016.34 1016.38 1016.38 1016.42 1016.50 1016.50 1016.50 1016.46 1016.46 1016.46 1016.42 1016.34 1016.30 1016.34 1016.38 1016.42 1016.46 1016.54 1016.58 1016.66 1016.66 1016.70 1016.74 1016.70 1016.74 1016.74 1016.74 1016.74 1016.74 1016.74 1016.78 1016.86 1016.98 1017.10 1017.26 1017.34 1017.30 1017.30 1017.22 1017.22 1017.26 1017.30 1017.30 1017.34 1017.30 1017.30 1017.30 1017.38
1016.22 1016.18 1016.22 1016.26 1016.30 1016.30 1016.38 1016.42 1016.46 1016.50 1016.50 1016.46 1016.46 1016.42 1016.38 1016.34 1016.34 1016.30 1016.22 1016.14 1016.14 1016.18 1016.22 1016.22 1016.26 1016.30 1016.34 1016.38 1016.38 1016.38 1016.34 1016.30 1016.22 1016.18 1016.22 1016.30 1016.34 1016.42 1016.46 1016.54 1016.58 1016.58 1016.62 1016.66 1016.70 1016.74 1016.74 1016.70 1016.66 1016.66 1016.66 1016.70 1016.74 1016.82 1016.98 1017.14 1017.22 1017.30 1017.26 1017.14 1017.14 1017.14 1017.14 1017.22 1017.22 1017.26 1017.26 1017.30 1017.30
1016.06 1016.02 1016.02 1016.02 1016.02 1016.10 1016.14 1016.18 1016.22 1016.30 1016.30 1016.30 1016.30 1016.22 1016.18 1016.14 1016.14 1016.14 1016.06 1016.02 1016.02 1016.02 1016.02 1016.06 1016.14 1016.14 1016.18 1016.22 1016.22 1016.22 1016.22 1016.18 1016.14 1016.10 1016.14 1016.18 1016.30 1016.34 1016.38 1016.38 1016.38 1016.42 1016.42 1016.46 1016.58 1016.66 1016.66 1016.66 1016.58 1016.58 1016.58 1016.58 1016.62 1016.74 1016.86 1017.02 1017.06 1017.14 1017.14 1017.10 1017.10 1017.10 1017.10 1017.10 1017.10 1017.14 1017.14 1017.18 1017.22
1015.98 1015.90 1015.86 1015.86 1015.86 1015.90 1015.98 1016.02 1016.06 1016.06 1016.10 1016.06 1016.06 1016.02 1015.90 1015.86 1015.86 1015.86 1015.86 1015.86 1015.86 1015.86 1015.86 1015.90 1015.98 1016.02 1016.02 1016.02 1016.02 1016.10 1016.10 1016.06 1016.06 1016.06 1016.06 1016.06 1016.14 1016.18 1016.22 1016.26 1016.30 1016.30 1016.34 1016.38 1016.46 1016.54 1016.54 1016.54 1016.50 1016.50 1016.54 1016.58 1016.62 1016.66 1016.74 1016.82 1016.90 1016.98 1017.02 1017.06 1017.02 1017.02 1017.02 1017.02 1017.02 1017.02 1017.02 1017.02 1017.10
1015.86 1015.82 1015.78 1015.74 1015.78 1015.82 1015.86 1015.90 1015.90 1015.90 1015.86 1015.86 1015.78 1015.74 1015.66 1015.58 1015.58 1015.58 1015.62 1015.66 1015.70 1015.70 1015.70 1015.70 1015.78 1015.82 1015.86 1015.86 1015.86 1015.90 1015.94 1015.98 1015.98 1015.98 1015.94 1015.98 1016.02 1016.06 1016.10 1016.14 1016.18 1016.22 1016.26 1016.30 1016.42 1016.46 1016.46 1016.46 1016.50 1016.46 1016.42 1016.54 1016.58 1016.62 1016.70 1016.78 1016.86 1016.90 1016.94 1016.98 1016.98 1016.98 1016.98 1017.02 1016.98 1016.94 1016.94 1016.94 1016.98
1015.82 1015.74 1015.70 1015.66 1015.66 1015.74 1015.74 1015.78 1015.74 1015.74 1015.66 1015.58 1015.58 1015.54 1015.50 1015.46 1015.46 1015.46 1015.50 1015.54 1015.58 1015.58 1015.58 1015.50 1015.58 1015.66 1015.70 1015.74 1015.74 1015.78 1015.82 1015.86 1015.86 1015.86 1015.86 1015.86 1015.86 1015.94 1016.02 1016.02 1016.10 1016.14 1016.22 1016.30 1016.38 1016.42 1016.42 1016.42 1016.46 1016.46 1016.42 1016.46 1016.54 1016.62 1016.74 1016.86 1016.90 1016.90 1016.90 1016.90 1016.90 1016.90 1016.90 1016.94 1016.94 1016.94 1016.94 1016.94 1016.98
1015.66 1015.58 1015.54 1015.50 1015.50 1015.58 1015.62 1015.58 1015.58 1015.54 1015.50 1015.46 1015.42 1015.38 1015.38 1015.34 1015.30 1015.34 1015.42 1015.46 1015.46 1015.50 1015.46 1015.38 1015.38 1015.46 1015.58 1015.62 1015.62 1015.70 1015.74 1015.74 1015.74 1015.74 1015.70 1015.74 1015.74 1015.82 1015.90 1016.02 1016.06 1016.14 1016.22 1016.26 1016.34 1016.42 1016.46 1016.42 1016.42 1016.46 1016.50 1016.54 1016.58 1016.66 1016.78 1016.86 1016.98 1016.98 1016.98 1016.94 1016.94 1016.94 1016.94 1016.94 1016.98 1016.98 1016.98 1017.02 1017.02
1015.50 1015.42 1015.34 1015.34 1015.38 1015.42 1015.46 1015.46 1015.42 1015.38 1015.34 1015.30 1015.30 1015.30 1015.30 1015.26 1015.18 1015.22 1015.30 1015.38 1015.42 1015.42 1015.38 1015.30 1015.30 1015.30 1015.46 1015.58 1015.62 1015.66 1015.66 1015.62 1015.62 1015.62 1015.58 1015.58 1015.62 1015.74 1015.86 1016.02 1016.10 1016.14 1016.22 1016.30 1016.38 1016.46 1016.50 1016.54 1016.58 1016.58 1016.66 1016.70 1016.74 1016.78 1016.82 1016.86 1017.02 1017.02 1017.02 1017.06 1017.06 1017.06 1017.02 1017.02 1017.02 1017.02 1017.06 1017.10 1017.06
1015.30 1015.22 1015.14 1015.14 1015.18 1015.26 1015.30 1015.34 1015.30 1015.26 1015.22 1015.14 1015.18 1015.18 1015.18 1015.14 1015.14 1015.18 1015.26 1015.30 1015.30 1015.30 1015.26 1015.22 1015.22 1015.26 1015.30 1015.46 1015.58 1015.62 1015.62 1015.58 1015.58 1015.54 1015.50 1015.50 1015.58 1015.70 1015.86 1016.02 1016.10 1016.18 1016.30 1016.30 1016.38 1016.42 1016.46 1016.58 1016.66 1016.74 1016.86 1016.90 1016.94 1016.98 1016.98 1016.98 1017.06 1017.10 1017.14 1017.18 1017.22 1017.22 1017.22 1017.22 1017.18 1017.18 1017.14 1017.14 1017.10
1015.06 1015.02 1015.02 1015.02 1015.06 1015.14 1015.18 1015.22 1015.18 1015.14 1015.10 1015.06 1015.06 1015.10 1015.10 1015.10 1015.10 1015.10 1015.14 1015.14 1015.18 1015.18 1015.14 1015.14 1015.18 1015.22 1015.30 1015.34 1015.46 1015.58 1015.58 1015.58 1015.58 1015.54 1015.50 1015.54 1015.58 1015.70 1015.82 1015.98 1016.14 1016.26 1016.38 1016.42 1016.46 1016.46 1016.50 1016.58 1016.74 1016.86 1016.98 1017.10 1017.14 1017.14 1017.18 1017.18 1017.26 1017.26 1017.26 1017.30 1017.30 1017.34 1017.34 1017.34 1017.34 1017.30 1017.26 1017.22 1017.14
1014.86 1014.82 1014.82 1014.86 1014.94 1015.02 1015.06 1015.06 1015.06 1015.02 1015.02 1014.98 1015.02 1015.02 1015.02 1015.02 1015.06 1015.02 1015.02 1015.02 1015.10 1015.14 1015.14 1015.18 1015.18 1015.26 1015.30 1015.38 1015.46 1015.54 1015.58 1015.62 1015.62 1015.58 1015.58 1015.66 1015.74 1015.82 1015.90 1016.06 1016.18 1016.38 1016.54 1016.58 1016.62 1016.66 1016.74 1016.86 1016.98 1017.10 1017.18 1017.26 1017.34 1017.38 1017.46 1017.50 1017.50 1017.54 1017.50 1017.50 1017.50 1017.50 1017.50 1017.46 1017.46 1017.42 1017.34 1017.30 1017.22
1014.74 1014.66 1014.66 1014.74 1014.82 1014.86 1014.90 1014.94 1014.94 1014.94 1014.94 1014.98 1014.98 1014.98 1014.98 1014.98 1015.02 1014.98 1014.94 1014.94 1015.02 1015.06 1015.14 1015.22 1015.26 1015.30 1015.38 1015.46 1015.50 1015.58 1015.70 1015.74 1015.74 1015.74 1015.78 1015.86 1015.90 1016.02 1016.10 1016.22 1016.38 1016.58 1016.74 1016.82 1016.86 1016.90 1017.02 1017.14 1017.26 1017.34 1017.42 1017.46 1017.58 1017.58 1017.66 1017.70 1017.70 1017.74 1017.74 1017.70 1017.62 1017.58 1017.58 1017.54 1017.46 1017.46 1017.38 1017.34 1017.30
1014.70 1014.66 1014.66 1014.70 1014.74 1014.78 1014.82 1014.86 1014.90 1014.98 1015.02 1015.02 1015.02 1014.98 1014.98 1014.98 1014.94 1014.94 1014.94 1014.94 1015.02 1015.14 1015.22 1015.30 1015.42 1015.46 1015.50 1015.58 1015.66 1015.74 1015.86 1015.94 1016.02 1016.02 1016.06 1016.14 1016.18 1016.30 1016.42 1016.50 1016.74 1016.86 1017.02 1017.10 1017.14 1017.18 1017.30 1017.38 1017.50 1017.58 1017.66 1017.70 1017.74 1017.74 1017.78 1017.78 1017.74 1017.74 1017.74 1017.74 1017.70 1017.62 1017.58 1017.58 1017.54 1017.50 1017.46 1017.42 1017.34
1014.74 1014.74 1014.74 1014.70 1014.74 1014.74 1014.78 1014.86 1014.98 1015.02 1015.10 1015.10 1015.06 1015.02 1015.02 1015.02 1014.98 1015.02 1015.06 1015.22 1015.34 1015.42 1015.46 1015.54 1015.62 1015.74 1015.86 1015.94 1016.02 1016.14 1016.22 1016.34 1016.42 1016.42 1016.46 1016.50 1016.58 1016.74 1016.90 1017.02 1017.14 1017.30 1017.38 1017.42 1017.42 1017.46 1017.58 1017.70 1017.74 1017.78 1017.82 1017.86 1017.82 1017.82 1017.82 1017.78 1017.78 1017.74 1017.74 1017.74 1017.70 1017.66 1017.62 1017.58 1017.58 1017.46 1017.42 1017.30 1017.22
1014.78 1014.78 1014.74 1014.74 1014.78 1014.86 1014.94 1015.06 1015.10 1015.14 1015.14 1015.14 1015.10 1015.06 1015.06 1015.06 1015.14 1015.26 1015.42 1015.58 1015.70 1015.74 1015.78 1015.86 1016.06 1016.26 1016.38 1016.46 1016.54 1016.58 1016.66 1016.74 1016.82 1016.90 1016.94 1016.94 1017.02 1017.14 1017.30 1017.46 1017.54 1017.58 1017.58 1017.58 1017.70 1017.78 1017.86 1017.90 1017.90 1017.90 1017.90 1017.86 1017.86 1017.82 1017.82 1017.82 1017.78 1017.78 1017.74 1017.70 1017.66 1017.58 1017.58 1017.46 1017.38 1017.30 1017.18 1017.14 1017.06
1014.74 1014.74 1014.74 1014.82 1014.90 1015.02 1015.10 1015.14 1015.14 1015.14 1015.14 1015.14 1015.14 1015.14 1015.14 1015.30 1015.46 1015.58 1015.74 1015.82 1015.90 1016.02 1016.14 1016.30 1016.58 1016.70 1016.78 1016.86 1016.94 1016.98 1017.02 1017.06 1017.14 1017.26 1017.30 1017.42 1017.46 1017.58 1017.62 1017.66 1017.66 1017.66 1017.70 1017.74 1017.90 1018.02 1018.06 1018.06 1018.02 1017.94 1017.90 1017.86 1017.86 1017.82 1017.78 1017.78 1017.74 1017.70 1017.66 1017.58 1017.50 1017.42 1017.30 1017.26 1017.14 1017.10 1017.02 1016.94 1016.90
1014.74 1014.78 1014.82 1014.90 1014.98 1015.06 1015.14 1015.14 1015.18 1015.14 1015.10 1015.10 1015.14 1015.26 1015.42 1015.58 1015.70 1015.78 1015.86 1015.94 1016.14 1016.30 1016.42 1016.58 1016.78 1016.86 1016.90 1017.02 1017.14 1017.30 1017.38 1017.46 1017.54 1017.58 1017.66 1017.70 1017.74 1017.74 1017.74 1017.70 1017.62 1017.62 1017.70 1017.78 1018.02 1018.14 1018.14 1018.14 1018.14 1018.02 1017.94 1017.86 1017.78 1017.74 1017.66 1017.62 1017.54 1017.50 1017.46 1017.38 1017.30 1017.22 1017.14 1017.06 1017.02 1016.94 1016.86 1016.74 1016.62
1014.78 1014.86 1014.94 1014.98 1014.98 1015.02 1015.06 1015.06 1015.06 1015.10 1015.14 1015.22 1015.34 1015.46 1015.54 1015.66 1015.74 1015.86 1015.98 1016.14 1016.34 1016.50 1016.62 1016.74 1016.86 1017.02 1017.10 1017.18 1017.38 1017.54 1017.66 1017.74 1017.74 1017.78 1017.78 1017.74 1017.78 1017.74 1017.70 1017.62 1017.58 1017.58 1017.66 1017.78 1017.98 1018.10 1018.14 1018.14 1018.14 1018.10 1018.02 1017.86 1017.74 1017.58 1017.50 1017.38 1017.30 1017.26 1017.22 1017.22 1017.14 1017.06 1016.98 1016.86 1016.74 1016.62 1016.54 1016.42 1016.30
1014.86 1014.90 1014.94 1014.94 1014.94 1014.90 1014.94 1014.98 1015.02 1015.14 1015.26 1015.38 1015.50 1015.58 1015.62 1015.74 1015.78 1015.94 1016.14 1016.30 1016.42 1016.58 1016.74 1016.86 1017.06 1017.26 1017.38 1017.46 1017.58 1017.66 1017.74 1017.74 1017.78 1017.78 1017.74 1017.74 1017.74 1017.70 1017.62 1017.58 1017.50 1017.50 1017.58 1017.74 1017.86 1017.98 1018.02 1018.06 1018.06 1018.06 1018.02 1017.82 1017.66 1017.50 1017.38 1017.22 1017.14 1017.10 1017.06 1017.02 1016.90 1016.82 1016.70 1016.50 1016.38 1016.26 1016.14 1016.10 1016.06
1014.86 1014.90 1014.90 1014.90 1014.90 1014.94 1015.02 1015.06 1015.14 1015.26 1015.38 1015.50 1015.58 1015.70 1015.78 1015.86 1016.02 1016.14 1016.30 1016.42 1016.54 1016.66 1016.86 1017.10 1017.30 1017.46 1017.58 1017.58 1017.66 1017.70 1017.70 1017.70 1017.74 1017.70 1017.62 1017.58 1017.58 1017.54 1017.46 1017.42 1017.30 1017.30 1017.38 1017.58 1017.78 1017.86 1017.94 1017.94 1017.94 1017.98 1017.94 1017.86 1017.66 1017.46 1017.30 1017.14 1017.02 1016.90 1016.78 1016.70 1016.58 1016.42 1016.34 1016.22 1016.10 1016.02 1015.94 1015.86 1015.86
1014.90 1014.94 1014.94 1014.94 1015.02 1015.06 1015.14 1015.18 1015.30 1015.38 1015.50 1015.62 1015.74 1015.86 1016.02 1016.14 1016.30 1016.42 1016.54 1016.58 1016.70 1016.86 1017.02 1017.26 1017.46 1017.58 1017.58 1017.58 1017.62 1017.66 1017.66 1017.58 1017.54 1017.50 1017.46 1017.46 1017.46 1017.42 1017.30 1017.22 1017.14 1017.14 1017.22 1017.46 1017.66 1017.78 1017.86 1017.86 1017.86 1017.86 1017.86 1017.86 1017.66 1017.46 1017.22 1017.06 1016.90 1016.74 1016.62 1016.42 1016.30 1016.22 1016.10 1016.02 1015.94 1015.86 1015.82 1015.74 1015.74
1014.94 1014.98 1015.02 1015.02 1015.14 1015.22 1015.30 1015.34 1015.46 1015.54 1015.66 1015.78 1015.94 1016.10 1016.26 1016.42 1016.58 1016.70 1016.74 1016.82 1016.98 1017.10 1017.26 1017.38 1017.46 1017.46 1017.54 1017.58 1017.58 1017.54 1017.50 1017.46 1017.42 1017.42 1017.38 1017.38 1017.38 1017.30 1017.14 1017.02 1016.94 1016.94 1017.14 1017.42 1017.58 1017.74 1017.82 1017.82 1017.82 1017.82 1017.82 1017.78 1017.70 1017.50 1017.30 1017.06 1016.86 1016.70 1016.50 1016.34 1016.22 1016.10 1016.02 1015.94 1015.86 1015.86 1015.82 1015.74 1015.66
1015.02 1015.06 1015.14 1015.22 1015.30 1015.34 1015.46 1015.58 1015.62 1015.74 1015.82 1015.94 1016.10 1016.30 1016.50 1016.70 1016.82 1016.94 1017.02 1017.10 1017.14 1017.26 1017.34 1017.38 1017.38 1017.38 1017.46 1017.46 1017.46 1017.46 1017.42 1017.34 1017.30 1017.30 1017.26 1017.22 1017.18 1017.10 1016.98 1016.90 1016.86 1016.90 1017.14 1017.46 1017.58 1017.74 1017.78 1017.78 1017.74 1017.74 1017.74 1017.74 1017.66 1017.46 1017.26 1017.02 1016.86 1016.66 1016.46 1016.30 1016.14 1016.02 1015.98 1015.90 1015.86 1015.78 1015.74 1015.70 1015.62
1015.14 1015.18 1015.26 1015.30 1015.38 1015.50 1015.58 1015.70 1015.78 1015.90 1016.06 1016.18 1016.34 1016.58 1016.78 1016.90 1017.02 1017.06 1017.14 1017.14 1017.22 1017.26 1017.30 1017.30 1017.30 1017.30 1017.30 1017.30 1017.30 1017.30 1017.30 1017.30 1017.26 1017.22 1017.14 1017.10 1017.06 1017.02 1016.98 1016.94 1016.86 1016.86 1017.14 1017.50 1017.62 1017.70 1017.74 1017.74 1017.70 1017.70 1017.70 1017.70 1017.58 1017.42 1017.22 1017.02 1016.82 1016.58 1016.38 1016.18 1016.06 1015.98 1015.90 1015.86 1015.82 1015.74 1015.66 1015.58 1015.58
1015.26 1015.26 1015.26 1015.30 1015.46 1015.58 1015.74 1015.86 1016.02 1016.14 1016.30 1016.46 1016.66 1016.78 1016.90 1016.94 1017.02 1017.06 1017.14 1017.14 1017.18 1017.22 1017.22 1017.22 1017.18 1017.14 1017.14 1017.14 1017.18 1017.26 1017.26 1017.26 1017.22 1017.14 1017.14 1017.10 1017.06 1017.02 1016.98 1016.86 1016.74 1016.86 1017.22 1017.50 1017.58 1017.62 1017.66 1017.66 1017.66 1017.66 1017.62 1017.62 1017.54 1017.30 1017.06 1016.86 1016.70 1016.42 1016.18 1016.02 1015.86 1015.82 1015.74 1015.74 1015.70 1015.62 1015.58 1015.58 1015.54
1015.38 1015.34 1015.34 1015.46 1015.58 1015.74 1015.90 1016.10 1016.26 1016.42 1016.58 1016.74 1016.86 1016.94 1016.98 1016.98 1017.02 1017.02 1017.10 1017.14 1017.14 1017.14 1017.14 1017.14 1017.14 1017.14 1017.14 1017.14 1017.14 1017.18 1017.22 1017.22 1017.18 1017.14 1017.10 1017.06 1017.02 1016.94 1016.82 1016.70 1016.58 1016.90 1017.30 1017.46 1017.50 1017.58 1017.58 1017.58 1017.58 1017.58 1017.58 1017.58 1017.42 1017.14 1016.86 1016.62 1016.42 1016.14 1015.98 1015.78 1015.70 1015.66 1015.62 1015.62 1015.62 1015.62 1015.58 1015.58 1015.54
1015.50 1015.50 1015.50 1015.58 1015.78 1015.98 1016.14 1016.34 1016.54 1016.66 1016.78 1016.86 1016.98 1017.02 1017.02 1017.02 1017.02 1017.02 1017.10 1017.14 1017.10 1017.10 1017.10 1017.14 1017.14 1017.10 1017.06 1017.06 1017.06 1017.14 1017.22 1017.26 1017.26 1017.18 1017.14 1017.06 1016.94 1016.86 1016.74 1016.62 1016.58 1016.90 1017.30 1017.34 1017.46 1017.50 1017.58 1017.58 1017.58 1017.58 1017.54 1017.46 1017.22 1016.98 1016.66 1016.38 1016.10 1015.90 1015.74 1015.62 1015.58 1015.54 1015.58 1015.62 1015.62 1015.66 1015.66 1015.62 1015.58
1015.66 1015.74 1015.82 1015.94 1016.10 1016.30 1016.50 1016.66 1016.78 1016.86 1016.94 1016.98 1017.02 1017.02 1017.02 1017.02 1017.02 1017.02 1017.06 1017.06 1017.06 1017.06 1017.02 1017.02 1016.94 1016.90 1016.86 1016.90 1016.98 1017.14 1017.22 1017.26 1017.22 1017.22 1017.18 1017.14 1017.02 1016.86 1016.74 1016.66 1016.58 1016.82 1017.14 1017.30 1017.42 1017.50 1017.58 1017.58 1017.54 1017.54 1017.46 1017.30 1017.02 1016.74 1016.42 1016.18 1015.94 1015.74 1015.62 1015.54 1015.50 1015.54 1015.58 1015.62 1015.66 1015.74 1015.74 1015.66 1015.66
1015.86 1015.98 1016.14 1016.30 1016.50 1016.74 1016.86 1016.94 1017.02 1017.02 1017.02 1016.98 1017.02 1017.02 1017.06 1017.02 1017.02 1016.98 1017.02 1017.02 1017.02 1016.94 1016.86 1016.86 1016.78 1016.78 1016.78 1016.86 1016.94 1017.06 1017.18 1017.22 1017.26 1017.26 1017.22 1017.18 1017.10 1016.98 1016.82 1016.74 1016.66 1016.74 1016.98 1017.26 1017.38 1017.46 1017.50 1017.54 1017.50 1017.50 1017.38 1017.14 1016.86 1016.58 1016.30 1016.02 1015.86 1015.74 1015.58 1015.54 1015.54 1015.58 1015.66 1015.74 1015.74 1015.74 1015.70 1015.66 1015.62
1015.98 1016.26 1016.58 1016.78 1016.98 1017.06 1017.10 1017.14 1017.10 1017.06 1017.02 1017.02 1017.02 1017.02 1017.02 1017.02 1016.90 1016.86 1016.90 1016.98 1016.90 1016.86 1016.78 1016.74 1016.74 1016.74 1016.86 1016.98 1017.02 1017.14 1017.30 1017.34 1017.34 1017.30 1017.26 1017.18 1017.14 1017.02 1016.90 1016.82 1016.74 1016.74 1016.90 1017.14 1017.30 1017.42 1017.46 1017.46 1017.46 1017.46 1017.34 1017.10 1016.78 1016.50 1016.22 1016.02 1015.86 1015.78 1015.74 1015.70 1015.66 1015.66 1015.70 1015.74 1015.70 1015.58 1015.54 1015.54 1015.58
1016.50 1016.82 1017.02 1017.14 1017.22 1017.26 1017.22 1017.14 1017.14 1017.06 1017.02 1017.02 1017.02 1016.98 1016.94 1016.90 1016.86 1016.86 1016.90 1016.98 1016.90 1016.82 1016.74 1016.74 1016.74 1016.86 1017.02 1017.14 1017.18 1017.22 1017.30 1017.30 1017.34 1017.34 1017.30 1017.22 1017.18 1017.18 1017.14 1017.02 1016.90 1016.82 1016.86 1017.06 1017.22 1017.30 1017.34 1017.38 1017.34 1017.34 1017.30 1017.06 1016.78 1016.50 1016.30 1016.14 1016.02 1015.90 1015.82 1015.78 1015.70 1015.62 1015.58 1015.58 1015.54 1015.46 1015.38 1015.38 1015.42
1017.02 1017.14 1017.26 1017.30 1017.30 1017.22 1017.18 1017.14 1017.14 1017.06 1017.02 1016.94 1016.94 1016.86 1016.86 1016.86 1016.86 1016.90 1016.98 1016.94 1016.90 1016.86 1016.86 1016.86 1016.90 1017.02 1017.14 1017.30 1017.26 1017.18 1017.14 1017.14 1017.22 1017.30 1017.34 1017.30 1017.26 1017.30 1017.30 1017.14 1016.98 1016.86 1016.86 1017.02 1017.14 1017.22 1017.26 1017.30 1017.26 1017.30 1017.18 1016.98 1016.74 1016.54 1016.38 1016.22 1016.06 1015.94 1015.82 1015.74 1015.66 1015.58 1015.50 1015.46 1015.42 1015.38 1015.30 1015.18 1015.14
1017.18 1017.22 1017.26 1017.26 1017.22 1017.14 1017.10 1017.10 1017.06 1017.02 1016.94 1016.90 1016.90 1016.90 1016.86 1016.94 1016.94 1016.94 1016.94 1016.86 1016.86 1016.94 1016.98 1017.02 1017.06 1017.14 1017.22 1017.34 1017.26 1017.18 1017.14 1017.10 1017.02 1017.10 1017.26 1017.30 1017.22 1017.22 1017.18 1017.02 1016.94 1016.86 1016.82 1016.86 1016.98 1017.10 1017.14 1017.18 1017.18 1017.18 1017.14 1016.94 1016.82 1016.66 1016.46 1016.30 1016.10 1015.94 1015.86 1015.74 1015.66 1015.58 1015.50 1015.42 1015.34 1015.26 1015.14 1015.06 1014.90
Wind_Speed
6 5 5 4 4 3 3 3 2 2 3 4 4 4 4 4 5 5 5 5 5 5 5 5 5 6 6 7 8 8 7 7 6 6 5 6 5 4 4 4 4 4 4 4 4 4 4 4 4 3 3 3 4 4 4 4 5 5 5 5 4 4 4 3 3 3 4 4 4
7 6 6 4 4 4 3 3 3 3 4 4 4 4 5 5 5 5 6 6 5 5 5 5 6 6 7 8 7 7 7 7 6 6 6 6 5 5 4 4 4 5 5 5 5 4 4 5 4 3 3 3 4 4 4 4 4 5 5 5 4 4 4 4 5 6 6 6 6
6 6 6 6 5 5 4 4 4 5 5 5 4 4 4 4 5 5 6 6 6 6 6 5 6 6 7 8 7 7 7 7 7 7 6 6 5 5 5 5 5 5 5 5 5 5 4 4 4 3 3 3 3 4 4 4 4 4 5 5 4 4 4 4 5 6 6 6 8
6 6 6 6 7 7 6 5 5 6 5 4 4 4 4 4 5 5 6 7 7 7 6 6 6 6 6 7 8 8 8 7 8 7 7 6 6 6 6 6 6 6 6 6 6 5 5 5 4 3 4 4 5 5 5 5 5 5 4 4 4 4 5 5 6 6 6 7 8
7 6 6 6 7 6 6 5 6 6 5 4 4 4 4 5 5 5 6 6 6 6 6 7 6 6 6 7 8 9 8 8 7 7 7 7 7 7 7 7 7 7 7 7 6 6 6 6 5 5 5 6 6 6 6 5 6 5 4 4 4 5 5 6 6 6 7 7 7
7 7 6 6 6 6 5 5 6 6 6 5 5 6 6 5 5 6 6 6 7 7 7 7 7 7 7 8 9 8 8 8 8 8 8 8 8 8 8 8 8 8 7 7 8 8 8 8 6 6 6 6 6 5 5 5 5 5 5 5 5 6 6 7 6 7 7 8 8
7 7 7 7 7 6 6 6 6 6 6 6 7 8 8 7 7 8 8 7 7 7 6 5 6 7 8 8 8 8 8 8 8 9 9 8 8 8 8 8 8 8 8 8 8 8 8 8 6 5 4 4 3 4 5 6 6 6 6 6 5 6 6 7 6 6 7 9 9
7 7 7 7 7 8 8 8 7 7 7 6 7 9 10 10 9 9 9 8 8 7 6 5 7 8 9 9 8 9 9 9 9 9 9 8 8 8 7 7 8 8 8 8 7 7 7 6 5 4 4 4 3 4 5 7 6 6 6 6 6 6 6 6 6 6 7 9 10
8 8 8 8 8 8 8 8 8 8 8 8 9 10 10 10 10 10 9 8 8 7 7 7 8 9 10 10 9 9 9 9 9 9 9 8 8 7 7 7 7 7 7 7 7 7 7 5 5 4 4 4 4 5 6 7 7 7 7 6 6 6 6 6 6 7 7 8 9
9 9 9 9 9 9 9 9 9 9 9 10 10 10 10 9 9 9 9 8 7 7 8 8 9 9 10 10 10 10 10 9 9 9 9 8 8 8 7 7 7 7 7 6 6 7 6 6 5 5 5 5 5 6 6 7 8 8 7 6 6 7 7 7 7 8 8 8 9
11 11 10 9 9 9 9 9 9 9 9 10 10 11 10 9 9 9 8 8 8 9 9 9 9 10 10 10 10 10 10 9 9 8 8 8 8 8 8 8 8 8 7 7 6 6 6 6 6 6 6 6 6 6 7 8 8 9 8 7 7 8 8 8 8 8 8 8 9
12 12 11 10 10 9 9 9 8 8 9 10 10 10 10 10 10 9 9 9 9 10 10 10 10 10 10 9 10 10 10 9 9 9 9 9 9 9 9 9 9 8 8 7 6 6 6 6 7 7 8 8 6 6 6 8 8 9 9 8 8 8 8 8 8 8 7 8 8
12 12 12 11 10 10 9 9 8 8 9 10 10 10 10 9 10 9 9 10 10 10 9 10 10 10 10 10 9 9 9 9 9 9 9 9 9 9 9 9 9 9 8 7 6 6 6 7 8 8 8 8 7 6 6 7 8 8 8 9 9 9 8 9 8 8 8 8 8
13 13 12 12 11 10 9 9 8 8 9 10 10 10 9 9 9 9 9 9 9 10 10 10 9 9 9 10 10 10 9 9 9 9 10 9 9 9 9 9 9 9 8 7 6 7 7 8 8 8 9 8 8 7 6 6 7 8 8 8 9 9 9 8 8 8 8 8 8
14 13 13 12 11 10 9 9 8 8 9 10 10 9 9 8 8 8 8 9 9 10 10 9 9 9 9 10 10 10 10 10 10 10 10 10 10 9 9 9 9 8 8 7 6 7 7 8 8 8 8 8 7 7 6 6 7 7 8 8 8 8 8 8 8 8 8 8 8
14 14 13 12 11 10 9 9 8 8 9 9 9 9 9 8 8 8 8 8 9 9 9 10 9 9 9 9 10 10 10 10 10 10 10 10 9 9 9 8 8 8 8 7 7 6 6 7 6 7 7 7 7 7 7 6 7 7 7 8 8 8 8 8 8 8 8 8 8
15 14 14 12 11 10 10 9 8 8 8 9 9 9 9 8 8 7 8 8 8 9 10 10 10 9 9 8 9 9 9 10 10 10 9 9 9 8 8 8 8 7 7 7 7 6 6 6 5 5 5 6 6 7 7 6 6 6 7 7 7 7 7 8 8 8 8 9 9
15 14 13 12 11 10 10 10 10 10 10 10 10 9 9 8 8 8 8 8 9 10 10 11 10 9 9 9 8 8 8 8 9 9 8 8 8 7 7 6 6 6 6 6 6 6 6 5 4 3 4 4 5 6 6 6 6 6 7 7 7 7 7 8 8 8 9 9 9
14 14 13 11 10 10 10 10 10 10 10 10 9 9 9 9 9 9 9 9 9 10 10 10 9 9 9 9 8 7 7 7 8 8 7 7 6 6 5 5 5 5 5 6 6 5 5 4 4 4 4 4 4 5 5 6 6 7 7 7 8 8 8 8 8 9 9 9 10
13 13 12 11 10 10 10 10 10 10 9 9 9 10 10 10 10 10 10 10 9 9 9 9 9 9 8 8 7 7 6 5 6 6 6 5 5 4 4 4 4 5 5 5 4 4 4 4 4 4 4 4 5 5 5 6 6 7 7 7 8 8 9 9 9 9 10 10 10
11 11 10 10 10 10 10 9 9 9 9 9 10 10 10 10 10 9 9 9 8 7 7 8 8 8 7 7 6 5 4 3 3 3 3 3 3 3 4 4 4 4 4 4 3 3 4 4 4 4 4 5 5 5 6 6 7 7 7 7 8 8 9 9 9 10 10 10 11
10 10 10 10 10 10 9 8 8 8 9 10 10 10 10 9 8 8 7 6 6 5 5 5 5 4 4 4 4 3 2 2 3 3 3 4 4 5 6 6 5 4 3 3 4 4 5 5 5 5 5 5 5 6 6 6 7 8 8 9 9 9 10 10 10 10 11 11 11
9 9 9 9 9 8 8 7 7 8 9 9 10 9 8 7 6 5 4 4 3 4 3 3 4 5 5 6 5 5 4 4 5 6 6 6 7 7 6 5 4 3 3 3 4 5 5 4 5 5 5 5 6 7 7 7 7 8 8 9 10 10 10 10 11 11 11 11 11
8 8 7 6 7 7 7 7 7 8 8 9 9 8 6 5 4 4 3 2 2 3 4 5 6 7 7 7 7 7 6 6 7 7 7 7 7 6 4 3 2 2 2 2 3 3 2 3 4 5 5 6 6 7 7 7 8 8 9 10 10 10 10 11 11 11 11 11 11
7 7 6 6 6 6 6 7 7 7 7 7 6 5 4 3 3 2 2 3 5 6 7 7 7 7 7 7 7 7 7 7 7 6 6 5 4 3 2 1 1 1 1 0 2 2 1 2 3 4 5 6 6 7 8 8 9 9 9 9 10 10 10 11 11 12 12 12 12
6 6 6 6 6 6 6 6 6 6 5 5 4 3 2 2 2 3 5 6 7 7 7 7 7 7 6 6 7 6 6 5 4 3 2 2 2 2 2 2 2 2 2 1 2 3 3 4 5 5 5 6 7 7 8 8 8 9 9 9 9 10 10 11 12 12 12 12 12
6 6 6 6 7 6 6 5 4 4 3 3 2 2 2 2 3 5 6 7 7 7 7 7 7 6 5 5 4 4 2 1 1 1 2 2 3 3 4 4 3 3 3 3 4 4 5 6 7 7 7 7 7 7 7 7 8 8 9 9 10 11 11 12 12 12 12 11 11
6 6 6 7 6 5 4 4 3 3 2 2 2 2 2 3 5 6 6 6 7 7 7 6 5 4 3 2 2 1 0 1 2 2 3 4 4 5 5 4 4 4 3 4 4 5 6 7 8 8 8 7 7 7 8 8 8 9 9 9 10 11 11 11 11 11 11 11 11
7 6 6 6 4 3 3 3 2 2 2 3 3 3 4 5 5 5 5 5 6 6 5 4 3 2 1 1 0 1 2 3 3 3 4 5 5 6 5 5 5 4 2 4 3 4 5 7 7 7 7 7 6 6 7 7 8 8 9 9 9 10 10 11 10 10 11 11 11
6 5 4 3 2 2 2 2 3 3 3 3 4 5 5 5 5 5 5 5 5 5 3 2 1 1 0 1 1 2 3 3 4 4 5 5 6 6 6 6 5 3 1 4 1 2 4 5 6 6 6 6 6 7 7 8 9 9 9 9 10 11 12 12 12 12 12 11 12
5 3 1 0 1 2 3 3 3 4 4 4 5 6 6 5 5 4 4 4 4 3 2 1 0 1 1 2 3 3 4 4 5 5 6 6 6 6 6 5 5 2 2 5 2 1 3 4 5 5 5 5 6 7 7 9 10 10 10 10 11 12 12 12 12 12 12 12 12
3 1 1 2 3 3 4 4 5 5 5 6 6 6 5 4 4 4 3 3 3 2 1 0 1 2 3 4 4 5 5 5 6 6 6 5 5 5 5 5 5 2 3 5 2 2 3 4 5 5 6 7 7 8 9 10 11 11 11 12 13 13 12 11 11 12 13 13 13
1 1 1 3 4 5 5 6 6 6 6 6 5 4 3 3 3 3 3 2 1 1 1 2 3 4 4 4 5 5 5 6 6 5 5 5 5 5 6 6 4 1 5 4 3 3 4 5 6 7 7 8 8 9 10 11 10 10 11 11 12 12 12 12 12 12 12 13 13
1 1 2 4 5 6 6 7 7 6 6 5 4 2 2 2 2 2 1 1 1 2 3 3 4 4 4 4 5 5 5 5 5 5 5 5 5 6 6 6 2 3 6 4 3 4 5 6 7 8 9 9 9 10 11 12 11 11 11 12 12 11 11 12 12 12 13 13 13
1 1 3 4 6 6 7 6 6 5 4 3 2 1 1 1 1 1 1 1 2 3 3 3 4 4 4 4 4 4 5 5 5 5 5 5 6 6 6 7 3 4 7 4 4 4 5 7 7 8 9 9 9 9 11 12 12 12 12 12 12 12 11 12 12 12 12 12 12
2 3 4 5 6 6 6 5 4 3 2 1 1 1 1 1 2 2 2 2 3 3 4 4 4 4 3 3 4 4 4 5 5 5 4 4 5 6 6 7 4 3 5 4 4 4 6 7 8 9 9 9 8 9 10 10 10 11 11 12 11 11 11 11 11 11 11 11 11
2 4 5 6 6 6 5 3 2 1 1 1 1 1 2 2 3 2 2 2 3 3 4 4 4 3 3 4 4 4 4 4 4 4 4 3 4 5 6 7 6 3 3 4 3 4 6 7 8 9 9 9 9 9 9 9 8 9 10 10 11 11 11 10 10 10 10 10 10
4 6 7 6 5 4 3 1 1 0 0 1 1 2 3 3 3 2 2 2 3 3 4 4 4 4 4 5 5 5 4 4 3 3 3 3 3 5 6 7 7 6 4 3 3 4 6 7 8 9 9 9 9 9 8 8 8 8 9 9 9 9 9 8 8 9 9 10 11
8 8 6 5 3 1 0 0 1 1 2 2 3 3 3 3 2 1 1 1 2 3 4 5 5 4 4 5 5 5 4 3 2 1 1 2 3 4 5 7 7 7 5 3 3 4 5 7 8 9 9 9 9 8 8 7 8 8 8 8 8 9 9 8 8 8 9 10 12
7 5 4 2 1 1 1 1 2 2 3 3 3 3 3 2 1 1 1 1 2 3 4 5 5 5 4 4 5 5 5 4 2 1 1 2 2 2 3 6 7 7 6 5 4 4 5 7 8 9 9 8 8 7 7 7 8 8 8 8 7 8 8 8 8 8 8 10 11
4 3 2 1 1 1 2 2 3 3 3 3 2 2 1 1 1 1 2 2 3 3 4 4 4 4 4 4 4 5 5 6 4 2 1 2 3 3 4 5 6 7 7 6 5 5 6 7 8 9 9 8 8 7 7 7 7 8 8 8 8 7 7 8 8 8 8 9 10
Wind_Direction
239 232 227 226 230 237 244 247 248 256 266 272 280 285 289 290 291 291 289 287 286 287 288 288 290 290 290 289 285 283 281 277 272 268 263 260 254 244 231 222 217 212 206 198 187 180 172 166 163 159 155 151 151 151 151 149 147 143 138 136 136 137 141 149 163 174 179 184 185
235 228 220 211 217 227 237 241 233 232 237 246 259 272 281 284 285 287 287 286 286 286 287 286 285 285 285 283 279 276 272 268 260 253 248 244 239 230 220 216 209 203 198 191 188 186 180 175 174 171 168 167 168 165 163 162 161 158 156 157 154 155 161 172 183 187 188 189 189
239 229 219 210 212 217 225 233 236 240 243 246 249 257 267 275 279 282 284 286 286 285 284 283 282 282 281 279 272 267 263 260 251 244 238 233 224 216 210 207 201 197 194 193 197 200 199 191 187 182 180 180 181 178 175 176 176 173 171 175 169 170 175 181 187 189 189 191 193
239 232 225 220 221 224 230 238 249 256 261 265 262 261 263 270 273 276 279 283 283 282 281 281 282 280 276 272 266 261 256 252 246 239 233 224 215 210 208 206 202 199 198 197 204 210 212 207 203 200 198 198 199 199 196 189 189 187 185 183 177 177 180 184 187 189 190 193 195
229 228 228 229 231 235 241 249 256 262 265 267 265 263 262 263 263 266 270 274 275 276 277 280 280 276 269 263 259 255 250 242 237 232 226 217 211 207 207 209 209 207 205 205 209 213 217 218 219 218 217 217 218 215 209 199 195 190 185 177 178 180 183 186 188 190 193 195 197
226 223 223 226 231 237 242 246 252 255 258 257 258 260 261 258 257 260 265 272 276 279 280 278 275 270 264 258 252 246 240 232 226 223 221 215 211 209 209 213 216 217 217 219 219 220 222 227 232 236 238 241 242 234 217 200 197 192 186 179 181 184 188 190 191 194 197 199 202
239 234 228 224 224 228 233 237 242 246 249 251 253 257 261 263 265 269 274 279 283 282 277 267 260 257 255 252 246 240 234 226 222 220 220 218 214 215 217 220 224 225 226 227 226 225 226 231 238 240 239 239 237 219 203 196 197 195 193 187 187 191 196 199 200 202 205 206 208
251 246 240 235 230 230 233 236 239 242 244 245 249 255 259 263 268 273 276 279 278 275 268 256 251 250 250 248 244 239 234 228 223 220 220 221 222 225 229 232 232 230 229 226 224 223 223 228 232 229 220 211 212 204 198 197 201 204 204 201 197 199 203 209 209 211 213 214 214
252 247 242 237 234 233 235 238 240 243 245 247 250 253 257 261 267 271 275 275 275 272 268 260 254 250 247 245 243 239 236 232 228 224 222 224 229 234 239 240 237 234 229 224 222 219 219 222 224 223 219 212 210 203 198 198 205 212 216 216 212 210 210 214 216 218 220 220 219
256 252 247 241 236 234 235 237 239 242 245 249 251 253 256 258 262 267 271 274 273 269 264 258 254 249 245 242 240 239 238 236 233 230 229 230 235 240 243 244 242 239 235 228 226 224 224 228 231 230 228 225 220 211 204 201 209 216 223 228 225 223 222 221 221 222 224 226 224
262 260 257 252 246 242 240 239 239 239 242 246 250 253 255 255 258 261 265 270 268 264 259 254 250 247 243 239 239 238 238 238 238 238 238 239 241 244 248 250 250 249 245 240 237 235 236 241 243 240 237 236 231 223 215 212 217 222 228 236 234 233 232 231 229 228 229 230 229
264 264 262 259 255 251 247 243 242 242 243 245 250 255 259 261 262 263 265 266 266 263 259 253 248 245 243 241 240 240 240 240 242 243 245 247 249 251 253 254 254 254 253 250 245 245 248 251 252 249 245 241 239 234 228 225 228 230 234 239 239 239 237 237 236 236 237 237 235
264 264 263 261 258 254 250 246 246 247 249 251 255 260 266 270 271 271 269 267 265 264 260 255 248 244 243 244 244 243 242 241 243 245 248 252 255 256 256 256 255 255 254 250 246 246 251 256 256 256 253 248 245 243 240 237 238 239 240 241 242 242 243 242 242 244 246 247 246
264 263 262 261 258 254 250 248 249 252 255 257 261 266 271 275 276 275 272 268 266 264 263 260 251 245 242 244 246 246 244 243 243 245 249 252 255 257 257 257 256 255 253 249 243 244 249 255 256 257 257 255 252 250 247 246 248 249 250 249 248 248 249 249 250 251 252 253 252
262 260 259 259 256 253 250 250 253 256 259 262 266 270 274 277 277 275 272 268 266 265 265 263 256 248 243 243 245 246 245 244 244 246 249 252 254 256 257 259 259 257 255 250 244 244 249 256 259 261 262 263 260 256 252 249 253 257 260 261 260 259 259 259 259 259 258 257 255
261 259 258 257 253 251 251 253 258 261 264 266 271 275 278 279 278 276 271 265 263 263 263 262 258 251 244 240 241 242 244 245 245 247 250 253 255 256 257 260 261 260 258 255 249 246 248 256 263 269 272 273 272 269 265 259 259 262 266 268 270 271 271 272 270 269 266 263 261
260 259 258 257 254 253 253 257 261 264 267 271 276 280 282 283 282 277 270 262 260 260 260 259 257 253 248 241 238 239 242 245 247 249 252 255 258 258 258 259 262 264 265 265 261 258 256 255 260 268 275 280 281 280 279 276 273 272 272 272 273 275 277 279 279 277 275 271 270
261 260 260 258 256 255 256 259 262 266 270 276 281 285 287 287 284 280 273 265 261 259 259 259 256 254 251 245 239 237 241 246 251 254 257 261 263 263 263 263 268 273 276 277 276 277 278 280 281 282 283 285 286 288 290 290 288 286 285 284 282 282 282 282 281 280 279 277 275
265 263 261 260 258 258 259 261 264 269 275 282 287 290 291 290 287 283 278 270 263 259 257 257 254 252 249 246 242 240 242 248 256 260 264 268 270 270 270 272 278 283 286 287 289 295 303 312 317 314 309 304 303 303 302 301 299 297 295 293 289 287 284 282 281 280 279 279 279
271 269 267 266 265 265 265 265 268 273 280 287 291 292 293 293 290 286 281 276 269 261 256 254 252 249 247 245 243 242 244 252 261 267 272 276 278 282 287 293 299 299 300 301 308 318 327 335 337 333 327 324 319 313 308 303 299 295 292 290 287 285 283 282 281 281 280 280 280
277 275 273 272 271 271 272 272 276 281 287 291 292 293 294 294 292 289 287 286 282 272 261 254 253 252 251 251 250 252 257 271 285 293 299 311 323 336 342 344 339 331 325 329 342 354 358 358 353 345 336 326 316 307 301 296 292 290 288 286 285 284 284 283 282 281 279 277 276
280 277 275 274 275 276 278 281 286 289 292 292 293 294 295 296 296 298 302 307 303 291 278 269 272 281 290 299 302 310 325 358 13 16 18 23 29 27 24 19 12 360 351 356 10 14 11 3 351 338 326 313 303 297 293 290 289 289 288 287 285 284 282 279 276 274 272 270 270
277 275 275 276 280 284 286 289 291 292 292 293 295 297 300 304 312 323 334 337 325 315 314 329 360 11 14 14 10 11 18 35 43 41 38 37 39 38 36 32 25 14 6 12 18 14 4 349 333 321 311 302 296 292 289 286 284 282 281 280 279 277 274 271 269 268 267 267 268
275 274 276 280 286 288 288 288 289 291 293 296 301 308 317 333 346 356 3 7 19 27 34 44 45 43 41 39 32 27 27 33 39 40 38 37 37 35 31 25 15 4 5 24 34 23 355 325 312 304 299 293 289 284 280 276 272 270 270 271 271 271 270 270 270 270 270 268 267
279 279 280 282 283 282 282 283 288 293 299 307 317 330 347 10 24 42 61 70 68 67 65 65 63 58 54 52 45 38 33 31 30 30 30 30 28 18 358 326 311 302 308 51 110 127 190 256 274 283 286 284 280 276 271 267 264 263 264 266 269 271 271 271 270 268 267 265 264
286 285 282 279 277 276 278 283 292 302 314 329 343 358 18 54 85 92 91 88 85 81 76 70 64 57 51 52 49 45 40 35 29 19 4 344 325 309 300 293 289 284 272 222 174 185 209 231 245 257 268 275 274 272 270 268 266 266 266 267 267 267 267 268 267 266 265 265 266
284 281 280 279 279 281 286 298 311 326 343 2 15 34 63 92 101 102 101 100 96 89 80 71 65 58 52 50 50 49 46 38 336 287 282 285 287 289 289 286 283 276 259 223 207 215 231 244 248 253 259 269 274 276 277 277 275 272 268 266 264 263 264 266 269 271 273 273 275
280 280 282 284 287 296 310 327 343 359 17 34 49 69 85 97 101 103 103 102 95 87 80 73 69 65 60 54 51 44 312 268 265 270 277 284 287 286 283 278 273 264 242 213 215 230 248 259 262 261 261 268 274 276 276 277 276 274 272 270 269 270 272 274 277 280 281 282 281
280 283 287 290 301 320 345 2 15 30 45 58 71 83 91 95 98 99 97 92 84 80 77 77 75 74 66 47 323 272 264 267 274 281 286 289 287 283 278 273 271 260 218 175 206 241 263 272 273 270 267 268 275 280 282 282 281 281 280 279 280 280 282 283 284 285 286 286 285
287 288 292 300 335 21 38 39 48 59 72 84 91 94 94 93 89 84 80 79 80 81 82 83 84 79 37 288 276 273 273 275 280 282 280 276 273 270 268 267 272 270 134 118 152 266 280 282 280 278 275 274 278 282 285 287 287 286 285 284 284 284 285 285 286 287 287 287 286
295 295 300 36 74 77 78 77 82 87 92 96 97 94 91 89 85 82 82 85 88 89 88 76 33 298 278 271 270 273 275 275 271 267 265 264 265 267 272 279 282 293 76 87 70 320 297 294 293 292 291 289 284 284 286 287 286 285 284 283 283 284 285 286 286 286 286 285 285
296 281 181 125 109 103 100 100 99 97 95 93 94 93 94 95 94 95 97 97 97 99 107 249 264 265 265 266 266 267 268 268 265 264 265 270 276 282 287 288 285 302 76 82 60 352 323 317 313 310 306 302 292 288 286 284 282 280 279 279 280 281 282 283 283 284 285 286 286
277 227 156 125 114 109 106 104 100 97 94 93 91 92 95 97 97 98 101 104 119 165 220 244 254 259 264 269 270 270 270 270 271 273 276 281 284 285 285 282 283 47 83 83 51 5 343 334 325 319 313 307 296 287 282 280 277 275 275 275 276 278 279 281 284 286 288 289 289
207 167 131 116 112 109 106 102 99 96 94 91 87 83 77 71 78 85 99 144 208 228 238 247 258 265 270 276 278 279 280 280 283 284 285 284 283 284 285 285 302 87 92 82 43 8 348 337 327 320 314 306 294 286 281 279 277 274 274 275 277 280 283 286 289 290 291 291 291
157 122 109 107 105 103 100 97 95 94 92 90 89 75 47 28 17 358 278 242 241 244 248 252 257 262 266 271 277 281 282 283 284 286 288 289 292 295 298 298 324 85 95 77 39 6 345 332 324 318 312 301 290 283 280 280 278 278 278 280 282 285 288 291 292 292 292 292 291
103 96 95 95 91 88 85 85 87 89 94 97 85 43 1 335 317 297 275 254 249 252 255 258 260 264 271 277 279 278 278 279 283 288 293 299 304 307 309 307 323 54 87 70 34 359 337 326 321 315 309 298 288 283 282 282 281 282 283 285 288 290 292 293 293 291 290 289 288
98 90 84 78 74 71 69 68 72 84 96 81 14 333 311 299 290 280 268 256 256 260 264 269 277 289 301 308 305 303 302 300 300 301 304 307 310 313 314 313 319 339 36 56 23 348 329 319 317 313 307 296 290 288 287 286 287 287 289 290 291 292 293 292 290 287 285 283 283
61 68 68 64 62 60 57 49 27 355 332 326 309 295 284 282 280 277 267 259 272 280 287 294 305 319 328 327 320 316 312 303 301 302 304 309 318 320 320 317 318 323 338 18 0 334 320 314 313 311 307 298 295 293 292 292 293 293 292 292 290 289 288 286 285 283 281 280 278
54 60 64 62 62 62 56 253 280 294 297 294 286 275 267 265 271 279 297 290 299 305 312 318 328 337 339 329 316 307 298 288 281 281 297 310 327 329 323 317 315 316 322 338 332 319 311 310 311 310 306 297 296 295 296 296 294 292 290 288 287 286 285 284 283 283 281 280 276
65 71 77 85 114 213 233 247 268 278 281 279 274 267 262 265 287 318 323 300 309 317 323 330 334 336 332 319 306 302 300 296 282 259 261 297 318 314 306 305 307 309 311 316 314 310 308 308 309 308 305 299 299 299 299 297 293 291 290 289 289 289 289 288 287 285 283 281 277
86 99 120 151 203 245 260 265 269 273 276 280 279 285 299 318 317 309 304 307 321 328 331 330 327 325 319 306 300 304 308 304 297 290 269 278 290 284 283 295 302 305 308 311 313 312 309 307 307 306 306 304 304 302 300 297 294 293 293 292 293 293 293 292 289 286 283 281 279